ECHO 2 DEB (METAL OBJ), 742

Orbit data source: Space-Track

ECHO 2 DEB (METAL OBJ), 742 is space debris in LEO originally from a launch on Sat, 25 Jan 1964 UTC launched from the Air Force Western Test Range (AFWTR). Debris objects in space refer to the collection of defunct objects orbiting the Earth. Examples of debris include non-operational satellites, rocket bodies, and fragments generated from explosions, collisions, or faulty payload assembly.

Loading next visibility...
Identifier
742, 1964-004C
Orbit
LEO
Country
Flag of USUS
Related business
Manufacturer
Grummann
Mission
Spacecraft
Bus & Motor
ECHO CANISTER, Unknown motor
Mass
35 kg wet, 35 kg dry
Launch date (UTC)
1964-01-25 (62 years ago)
Launch vehicle
Unknown
Launch site
Air Force Western Test Range (AFWTR)
Object type
Payload
Rocket body
Debris
Shape & HBR
Unknown shape, 0.9 m
Radar Cross Section
Medium (>0.1 m² and <1 m²)

Expand to show TLE details & history
Last TLE update: 10 hours ago

TLE from 10 hours ago
0 ECHO 2 DEB (METAL OBJ)
1   742U 64004C   26035.81548951  .00000069  00000-0  11918-3 0  9992
2   742  81.4691 163.5138 0172106  88.6932 273.3902 13.26270739999816
Epoch: 2026-02-04T19:34Z
TLE epoch observation values (Epoch: 2026-02-04T19:34:18.293Z)
Latitude
-0.00004°
Longitude
94.96092°
Altitude
1,158.208 km
Speed
7.277 km/s
True Right ascension
10h 54m 03s
True Declination
0° 00' 00"
Sunlit
Object was in full shadow at epoch
Visualization orbit readout
Latitude
Unknown
Longitude
Unknown
Altitude
Unknown
Speed
Unknown
Apparent Right ascension
Unknown
Apparent Declination
Unknown
Sunlit
N/A
Visualization observer readout
Local Sidereal Time
07:51:37
Azimuth
Unknown
Elevation
Unknown
Doppler factor
Unknown
Orbital elements
Apogee altitude
1,287.842 km
Perigee altitude
1,028.435 km
Semi-major axis
7,536.276 km
Eccentricity
0.01721
Inclination
81.4691°
RAAN
163.5138°
Arg. of periapsis
88.6932°
True anomaly
271.41934°
Mean anomaly
273.3902°
Eccentric anomaly
272.40497°
Mean motion
3.31748 °/min
Orbital period
108.52 mins
BSTAR
0.00011918
Loading maneuver chart data...
Computing Atmospheric mass density...
Loading historical data...
Loading historical data...
Loading historical data...
Loading historical data...
Loading historical data...
Loading historical data...
Loading historical data...

Documentation

Showing up to 5 results
|